Notices

What's New in latest Release from April 7th, 2021:

- Updated Glossary, including Speed of Maximum Gust, and Total Hourly Precipitation

- Updated national and regional climate services offices contacts and prices information

- Addition of station inventory lists for 1981-2010, 1971-2000, and 1961-1990 Normals.

If you haven't already, please take our survey and provide feedback about our website: https://eccc.sondage-survey.ca/f/LanguageSelection.aspx?s=442ca660-fcf1-47c0-95a9-59707d6fd709

Hourly Data Report for September 07, 2015

IQALUIT CLIMATE
NUNAVUT

63°44'50.000" N
68°32'40.000" W
33.50 m
2402592
71321
XFB

Download Data

Hourly Data (September 2015)
Hourly Data Report for September 7, 2015
TIME
LST
Temp Definition
°C
Dew Point Definition
°C
Rel Hum Definition
%
Precip. Amount Definition
mm

Wind Dir Definition
10's deg

Wind Spd Definition
km/h
Visibility Definition
km
Stn Press Definition
kPa
Hmdx Definition


Wind Chill Definition


Weather Definition


00:00 3.2 1.5 89 0.0 33 22   100.88     LegendNANA
01:00 3.7 0.6 80 0.0 34 28   100.90     LegendNANA
02:00 3.2 0.4 82 0.0 33 24   100.92     LegendNANA
03:00 2.7 -0.4 80 0.0 33 24   100.91     LegendNANA
04:00 2.4 -0.2 83 0.0 33 18   100.88     LegendNANA
05:00 1.5 0.3 91 0.0 33 25   100.87     LegendNANA
06:00 2.2 0.8 90 0.0 33 23   100.85     LegendNANA
07:00 2.3 0.7 89 0.0 33 28   100.83     LegendNANA
08:00 2.9 0.7 85 0.0 33 32   100.82     LegendNANA
09:00 3.4 1.2 85 0.0 33 28   100.82     LegendNANA
10:00 4.5 0.5 75 0.0 33 29   100.77     LegendNANA
11:00 6.0 0.7 69 0.0 33 34   100.74     LegendNANA
12:00 6.0 0.7 69 0.0 33 30   100.72     LegendNANA
13:00 6.6 1.0 67 0.0 33 34   100.69     LegendNANA
14:00 6.9 0.4 63 0.0 32 29   100.71     LegendNANA
15:00 6.6 1.2 69 0.0 32 30   100.71     LegendNANA
16:00 5.3 0.8 72 0.0 32 36   100.71     LegendNANA
17:00 4.8 1.1 77 0.0 32 30   100.70     LegendNANA
18:00 4.1 1.0 80 0.0 32 30   100.71     LegendNANA
19:00 3.4 0.8 83 0.0 32 29   100.72     LegendNANA
20:00 3.4 1.0 85 0.0 32 23   100.76     LegendNANA
21:00 3.6 1.5 87 0.0 31 8   100.81     LegendNANA
22:00 4.2 2.0 85 0.0 33 20   100.81     LegendNANA
23:00 3.4 1.5 88 0.0 32 16   100.82     LegendNANA

Notes on Data Quality.

Legend

  • E = Estimated
  • M = Missing
  • NA = Not Available*
  • [empty] = Indicates an unobserved value
Date modified: